Location: Augirein
(42.9320°N, 0.9181°E)
Time: 02:50:12
(UTC+00:00)

COSMOS 2406 - Visible Passes

Search period start: 23 October 2021 00:00
Search period end: 02 November 2021 00:00
Orbit: 842 x 865 km, 71.0° (Epoch: 22 October)

Date Brightness Start Highest point End Pass type
(mag) Time Alt. Az. Time Alt. Az. Time Alt. Az.
23 Oct 5.3 03:28:13 16° N 03:28:13 16° N 03:29:44 10° N visible
24 Oct 5.5 03:17:14 14° N 03:17:14 14° N 03:18:13 10° N visible
25 Oct 5.7 03:06:12 12° N 03:06:12 12° N 03:06:43 10° N visible
26 Oct 5.9 02:55:09 10° N 02:55:09 10° N 02:55:11 10° N visible
